STARLINK-5120 (53982 NORAD) Tracking and Keplerian Element Data

This shows tracking and keplerian element data for the satellite.

Feedback or suggestion? Click here.




ElementValue
Catalog53982
NameSTARLINK-5120
Epoch Orbit760
Epoch Day324.91667824
Epoch Year2022
RAAN225.489
Inclination53.2164
Eccentricity0.0001406
Argument of Perigee95.8867
Mean Anonmoly169.3101
Mean Motion15.49920371
Decay Rate-0.00015186
L11 53982U 22125U 22324.91667824 -.00015186 00000+0 -25980-3 0 9994
L22 53982 53.2164 225.4890 0001406 95.8867 169.3101 15.49920371 7609



Live tracking and technical data element details for STARLINK-5120 (NORAD 53982). STARLINK-5120 can be tracked NOW for your location showing map with azimuth and elevation plus other details from your city location.







IsCatalogInMostPopularTable: catalog: 53982, numindb: 2
Update: records affected: 1



GetName: 53982 STARLINK-5120

Hit Count: updated at: Mon, 28 Nov 2022 21:53:01 GMT